User: anonymous   Login
Location: Unspecified
(0.0000°N, 0.0000°E)
Time: 15:02:28
(UTC+00:00)
Language:

COSMOS 2251 DEB - Orbit

View from above orbital plane
View from above orbital plane
View from above satellite
View from above satellite

Ground track
Ground track

The orbit data is extracted from the following two-line orbital elements,

1 34116U 93036KM  24053.89423734  .00003094  00000-0  88307-3 0  9995
2 34116  74.0477 338.5856 0016248 217.7446 210.8125 14.45521857789405
Epoch (UTC): 22 February 2024 21:27:42
Eccentricity: 0.0016248
inclination: 74.0477°
perigee height: 729 km
apogee height: 752 km
right ascension of ascending node: 338.5856°
argument of perigee: 217.7446°
revolutions per day: 14.45521857
mean anomaly at epoch: 210.8125°
orbit number at epoch: 78940

The dashed part of the orbit path shows where the satellite is in the earth's shadow,  

DLR